Theta_e
359 359 359 357 356 352 347 344 341 341 342 342 342 342 341 340 339 338 337 338 339 340 340 339 338 338 337 337 337 333 327 321 318 319 320 319 319 319 319 319 319 320 323 325 325 322 325 331 335 335 333 333 332 329 329 331 332 330 329 329 331 332 332 331 328 326 325 325 325 325 326 326 326 326 326 325 325 325 326 327 328 327 326 325 325
359 359 359 358 356 352 348 344 342 342 343 342 342 342 341 340 339 337 337 338 339 339 340 341 341 340 339 337 337 335 330 324 319 319 319 319 320 320 319 319 319 320 322 323 323 322 324 328 330 331 331 329 327 325 327 330 329 327 330 332 333 333 333 331 330 328 327 327 328 327 327 327 327 327 327 327 326 325 324 325 325 326 326 326 326
360 359 359 358 356 353 350 346 343 342 343 343 343 342 340 340 339 338 337 338 340 340 340 341 342 342 341 339 338 336 333 327 320 318 319 319 320 320 319 320 319 320 321 321 321 321 321 323 325 325 325 323 322 324 328 329 327 327 332 334 333 333 333 332 331 329 328 328 328 328 328 328 328 328 327 327 327 326 325 323 322 324 325 327 327
360 360 360 359 357 355 352 349 345 343 343 343 343 341 340 340 339 338 336 337 339 340 340 341 342 342 342 341 340 337 335 331 324 319 319 319 320 321 320 320 320 319 320 322 322 321 320 321 322 322 323 323 323 326 329 329 327 327 331 333 333 333 332 331 331 330 330 329 329 329 329 328 328 328 328 328 328 327 325 322 321 321 323 326 327
360 360 359 359 359 356 353 350 348 344 342 342 342 340 339 339 339 338 336 336 338 339 340 340 340 341 340 340 340 338 335 334 329 323 319 319 320 321 320 321 321 320 320 321 322 321 319 319 320 321 322 322 323 326 329 331 330 328 328 330 332 331 330 331 331 331 332 331 329 328 328 328 328 328 328 329 329 327 324 321 321 322 323 324 326
360 360 360 359 358 356 353 351 348 344 342 342 342 341 340 339 339 338 336 335 337 337 338 338 338 339 338 337 337 337 336 335 332 328 323 319 320 321 322 321 322 322 321 320 320 320 319 318 318 319 320 320 322 327 331 332 333 330 327 327 328 328 330 331 332 333 332 330 328 327 327 327 327 328 328 329 329 327 323 321 321 322 325 326 325
361 360 361 360 358 356 353 349 345 343 341 340 340 341 340 340 339 338 337 337 336 335 335 335 337 337 338 338 337 337 337 336 335 332 327 321 319 321 322 323 323 323 322 321 321 321 320 318 317 317 318 320 323 327 329 331 331 329 326 326 327 328 329 331 331 331 330 328 328 328 327 327 327 327 328 329 329 327 325 324 323 322 323 325 325
361 362 361 361 359 355 349 346 344 343 341 340 341 342 342 341 341 339 339 339 337 335 335 335 336 337 338 338 338 339 339 339 338 335 331 325 321 319 321 323 324 323 322 322 322 323 322 319 317 318 318 321 325 326 326 327 327 326 325 327 327 327 329 329 329 329 328 328 329 328 327 326 326 327 328 329 329 327 325 324 324 323 323 324 324
362 363 362 362 360 355 348 345 346 345 343 342 343 343 343 343 344 344 343 341 339 338 338 338 339 339 340 340 341 342 342 342 340 338 335 329 323 320 320 323 324 323 322 321 322 324 324 319 316 317 319 323 328 329 327 326 325 324 325 326 327 328 328 329 328 328 328 329 329 328 326 326 325 327 329 329 328 325 323 323 325 324 324 324 324
362 363 363 362 360 356 350 347 348 348 346 344 344 343 343 344 347 348 347 345 343 342 341 341 342 342 343 343 344 344 345 344 343 341 338 334 328 322 320 321 324 325 322 321 321 324 325 321 317 317 318 322 328 331 330 329 328 327 326 327 328 328 329 329 329 329 329 330 328 327 327 326 325 327 328 327 326 325 324 325 325 324 324 324 323
361 362 363 362 360 358 353 350 350 349 347 346 345 345 344 345 348 350 351 350 348 347 345 343 343 343 344 345 346 346 346 345 344 343 340 337 332 325 320 320 322 325 324 321 321 324 326 324 320 318 320 324 329 332 333 333 333 331 330 329 329 328 329 329 329 329 330 329 327 327 327 326 325 326 326 325 325 326 326 325 325 324 323 323 322
361 361 362 361 360 359 356 354 352 350 349 348 347 348 348 348 350 352 353 353 352 351 350 348 346 346 346 348 348 348 348 346 345 344 342 339 336 330 323 319 320 324 325 322 321 323 326 325 323 322 327 332 334 335 335 334 334 333 331 330 329 330 330 329 329 329 329 327 326 327 326 326 325 325 324 325 325 326 326 325 324 324 323 322 322
360 359 360 360 359 358 357 357 355 353 351 350 349 351 352 352 353 353 354 353 354 354 354 352 352 351 350 350 350 350 349 348 347 345 343 341 338 334 328 322 318 322 325 323 322 323 325 326 326 327 331 335 336 336 335 334 334 332 332 331 330 331 331 328 326 327 326 325 326 327 326 326 325 324 323 325 326 326 325 324 324 323 323 322 321
358 358 358 358 357 356 356 357 357 356 355 353 352 353 354 355 355 355 355 355 354 355 355 354 354 354 353 352 352 351 351 349 348 346 344 343 341 338 333 326 320 321 325 324 322 323 327 329 330 331 334 336 336 335 334 334 334 332 331 331 331 331 329 325 324 325 325 324 326 327 326 325 325 323 324 325 326 325 325 325 324 323 322 320 319
356 356 355 356 357 355 355 356 357 358 357 356 355 354 355 356 357 357 357 356 355 355 355 355 355 354 354 353 352 352 351 350 349 347 346 345 343 341 336 329 322 322 324 325 323 325 329 331 332 334 336 336 336 334 332 332 334 332 331 331 330 328 327 324 324 325 324 324 326 326 325 324 323 323 323 325 325 325 325 324 322 321 320 319 318
355 354 354 355 355 355 355 355 357 358 359 358 357 356 355 356 357 357 356 356 356 356 355 355 355 354 354 353 352 352 351 350 349 348 347 346 345 343 339 333 326 321 323 325 325 326 330 333 334 336 337 336 336 335 332 332 333 331 329 326 324 325 325 324 325 324 324 325 325 325 324 323 322 322 322 323 324 324 323 321 320 319 319 319 319
353 352 353 354 354 354 355 355 357 359 359 359 359 358 357 357 357 357 357 356 356 355 356 355 355 354 354 353 353 352 351 350 349 348 348 347 346 344 341 337 330 322 322 325 326 329 334 336 336 337 337 336 336 336 334 332 331 329 325 321 322 326 327 325 325 325 325 325 325 324 324 323 322 321 322 322 321 320 319 319 319 319 320 320 320
351 350 351 352 353 354 355 356 357 358 359 359 360 360 360 359 358 357 356 356 356 355 356 356 355 355 354 353 353 352 351 350 349 348 348 346 346 344 343 340 333 324 322 324 326 331 337 338 337 337 337 336 336 335 333 328 326 324 321 320 325 329 329 327 326 326 326 324 323 322 322 321 320 320 320 319 318 318 318 319 320 320 321 320 320
350 349 350 352 353 353 355 357 358 357 358 359 360 361 362 361 360 359 357 356 356 356 356 356 356 356 355 354 353 351 350 350 348 348 347 346 346 344 341 339 334 327 323 324 325 330 335 337 336 336 336 337 335 334 331 326 324 322 318 321 329 331 329 327 327 326 325 322 321 320 319 319 318 318 318 317 317 318 319 320 320 320 319 318 318
352 350 350 352 353 355 357 358 358 358 358 360 362 363 362 362 361 360 359 358 357 357 357 356 356 356 354 353 352 351 350 349 347 346 346 345 344 342 339 337 334 328 324 325 326 328 330 332 333 334 335 336 334 332 330 326 323 320 319 325 330 330 328 328 327 325 323 320 319 318 318 318 318 317 317 317 318 319 319 319 319 318 318 317 317
355 352 352 354 355 357 358 358 359 360 360 362 364 364 363 362 361 361 360 359 358 357 357 356 354 353 352 351 350 349 347 345 344 343 342 342 342 340 338 336 332 328 326 327 328 328 328 329 329 330 332 334 332 329 326 323 320 321 325 329 330 328 327 326 324 322 320 319 319 319 319 318 317 317 318 319 319 319 319 318 318 317 317 317 317
359 356 355 357 358 359 360 360 361 363 363 364 364 363 363 363 361 360 359 358 357 356 355 353 352 351 350 349 348 346 344 343 341 340 340 341 340 338 336 334 332 330 330 331 331 331 331 331 330 330 331 331 328 323 321 323 325 327 329 330 328 327 325 323 321 320 319 319 319 319 318 318 318 318 319 320 319 319 319 318 318 318 317 315 313
361 360 360 361 362 363 363 363 364 365 365 365 364 364 363 360 357 356 355 355 355 354 353 352 351 350 349 347 346 345 343 342 341 340 340 340 338 336 335 334 334 334 334 334 334 334 334 333 333 332 331 326 322 320 322 326 329 330 329 328 326 324 322 320 319 319 319 319 319 318 317 318 318 319 319 319 319 318 318 317 316 314 311 308 306
363 363 364 365 366 366 366 367 367 366 365 365 364 362 359 355 351 352 353 354 354 353 352 351 350 349 347 346 346 345 343 341 340 340 340 339 337 336 335 335 335 335 335 335 335 335 335 334 332 329 325 321 320 322 326 329 329 328 326 324 322 320 319 319 318 318 318 318 317 317 317 317 317 316 316 317 317 317 316 312 308 306 305 304 303
365 367 367 368 368 368 368 368 367 366 365 364 362 357 353 351 349 349 352 353 352 352 351 350 349 348 346 346 346 345 343 341 340 340 339 338 337 336 336 336 336 335 335 335 335 335 335 331 327 324 323 323 325 326 327 328 327 324 321 321 320 319 319 318 317 317 317 317 316 316 316 316 316 315 315 315 314 314 314 311 305 303 305 306 305
368 369 369 370 369 369 369 367 366 365 363 361 357 353 351 350 347 347 349 350 350 350 349 348 347 345 344 343 343 342 341 340 340 339 339 338 337 336 336 335 335 335 335 335 335 334 331 327 327 328 328 327 328 328 328 326 323 321 320 321 320 319 318 318 318 318 317 317 316 316 316 316 316 316 315 315 314 314 313 310 305 303 306 307 305
370 371 370 370 369 367 366 364 363 362 361 358 356 353 352 350 347 346 347 348 348 347 347 346 344 342 341 341 340 340 340 340 340 340 339 338 337 336 336 335 335 336 336 335 334 332 327 324 328 331 329 327 327 327 325 322 321 321 322 322 321 319 318 318 318 318 318 317 317 317 317 316 316 316 316 315 315 313 311 307 304 304 306 307 307
371 370 369 368 366 364 362 361 360 360 358 357 356 355 353 350 348 347 347 347 347 346 345 344 342 341 340 340 340 340 341 340 341 341 340 339 338 337 336 336 336 335 333 331 329 326 322 322 328 330 328 325 324 324 323 323 323 323 322 322 321 320 319 318 318 318 318 318 318 317 317 317 316 316 316 314 313 310 307 305 304 306 307 307 307
369 367 366 365 363 361 359 359 359 358 356 355 354 353 352 350 349 348 347 347 347 345 342 342 342 341 341 341 341 341 341 340 341 340 340 339 338 337 336 335 333 330 325 322 322 322 323 326 328 327 325 324 324 324 324 324 324 323 323 322 321 320 319 318 318 318 318 318 318 318 317 315 315 314 313 312 309 307 306 305 305 307 307 307 307
364 363 364 362 360 360 359 358 357 355 354 353 352 351 351 350 349 348 347 346 345 342 340 341 341 342 342 342 342 342 341 340 340 339 338 337 337 337 336 332 328 325 321 320 322 325 327 327 326 325 324 325 325 325 325 325 324 324 323 322 320 319 319 319 319 319 318 318 317 316 315 313 313 312 310 308 307 307 307 306 306 307 307 307 307
358 359 360 358 357 357 356 355 354 353 352 351 350 350 350 349 348 347 346 345 343 341 341 342 342 343 343 343 342 341 339 339 338 337 336 335 334 335 333 330 326 326 326 325 326 327 327 326 325 326 326 326 326 325 325 324 324 323 323 321 320 319 319 319 319 318 317 316 315 314 313 312 311 310 308 307 307 307 307 306 307 307 307 307 307
355 356 355 354 354 354 352 351 350 350 350 350 349 348 347 347 346 345 344 343 342 341 342 343 342 342 342 341 340 339 337 336 337 336 335 334 333 333 332 330 329 329 329 328 327 326 325 326 327 326 326 325 325 325 324 324 323 322 322 320 319 318 318 318 317 316 316 315 314 313 312 311 310 309 307 306 307 306 307 307 307 306 306 306 306
352 353 352 352 351 350 348 348 348 348 348 348 348 347 346 345 343 342 341 341 341 341 342 341 340 340 340 339 337 337 336 335 335 334 333 332 332 331 330 330 330 329 327 326 326 325 325 326 327 326 325 325 324 323 323 323 322 321 320 319 318 318 317 317 316 316 316 315 314 313 312 310 309 307 305 306 307 307 307 307 306 306 306 306 306
349 350 349 349 348 347 347 347 346 345 345 345 346 346 346 345 343 342 340 340 341 341 340 340 339 339 339 337 335 335 334 333 332 331 330 328 328 328 327 327 328 327 326 325 325 325 325 327 327 325 324 323 323 322 322 322 321 320 319 319 318 318 317 316 316 315 315 314 313 313 312 310 307 304 304 306 307 307 307 306 306 305 305 305 305
347 346 345 343 342 343 343 342 341 340 340 341 343 344 345 344 343 342 340 339 339 340 339 337 337 337 337 336 334 331 330 329 328 326 325 325 324 324 325 325 325 325 325 325 325 325 326 326 325 323 322 322 322 322 321 320 320 320 319 318 318 317 316 315 315 314 314 314 313 313 311 307 303 303 305 307 307 307 306 306 305 305 305 305 306
344 343 341 339 338 339 339 339 339 339 339 340 342 343 343 343 342 342 341 340 339 339 337 334 333 334 335 335 333 328 325 325 324 323 323 323 323 324 324 324 324 325 325 325 325 324 324 323 321 320 321 321 321 321 321 320 320 319 318 317 317 316 315 315 315 314 314 313 312 311 308 304 303 305 307 306 306 306 305 304 304 304 305 305 306
343 341 340 339 338 338 338 338 338 339 340 341 342 342 342 342 341 341 341 340 339 339 337 333 331 331 332 333 331 327 324 323 322 322 322 322 323 324 325 325 325 325 325 324 323 322 321 321 320 320 320 320 320 320 320 319 319 318 317 316 316 315 315 315 314 313 313 312 311 308 306 304 305 307 306 305 305 304 303 302 304 305 305 305 305
342 340 339 339 339 337 336 336 337 338 338 339 339 339 337 338 339 339 339 339 339 338 337 335 332 330 330 331 330 327 324 322 322 322 322 323 325 325 325 326 326 325 324 323 322 322 321 321 321 321 320 320 320 319 319 318 318 317 316 315 315 314 314 313 312 312 310 309 308 307 306 306 306 306 305 305 304 303 302 303 305 305 305 305 306
343 341 340 339 339 337 334 334 334 334 336 336 336 335 334 334 336 337 337 335 335 333 332 331 329 327 327 328 327 325 323 321 321 322 323 325 326 326 326 326 325 323 323 323 323 323 323 322 322 321 320 320 319 318 317 316 315 315 315 314 314 313 312 312 312 310 308 307 306 306 306 306 305 305 304 304 302 302 303 305 305 304 304 305 306
343 342 340 339 338 336 334 332 332 334 336 337 336 336 334 334 335 335 333 332 331 330 329 327 324 323 323 323 323 322 321 320 321 324 326 326 327 326 326 326 324 323 324 324 324 323 323 322 321 321 320 319 317 316 315 315 314 314 314 314 313 312 311 311 310 308 306 305 305 306 306 306 305 305 304 302 301 302 304 305 304 304 305 305 306
341 341 340 339 339 337 334 332 333 334 335 336 337 336 335 335 335 334 333 332 332 331 329 326 324 324 324 323 322 322 323 324 325 326 326 327 326 326 326 326 324 323 323 324 323 322 322 321 320 320 319 318 316 315 315 315 315 314 314 313 312 311 310 310 310 307 305 305 305 306 306 306 305 305 303 300 300 303 304 304 304 304 305 305 305
340 339 339 338 336 334 331 330 332 334 335 336 337 336 336 336 335 334 333 333 332 331 330 329 327 326 326 326 325 325 326 326 326 326 326 326 326 325 325 325 324 323 323 322 322 322 321 320 320 319 318 317 316 316 316 315 314 314 313 312 312 311 310 309 309 307 305 304 305 305 305 305 305 305 302 298 299 301 303 303 304 305 305 305 305
338 336 334 332 331 330 329 331 334 335 335 336 336 335 335 334 334 333 333 332 332 332 332 330 328 327 327 327 327 326 326 325 325 325 325 324 324 324 323 323 323 322 322 322 322 321 320 319 319 319 318 317 316 316 316 315 314 313 312 311 311 311 310 309 308 306 304 304 305 305 305 305 304 302 299 296 297 299 301 303 304 304 305 305 304
334 330 330 331 331 331 332 334 335 335 334 334 334 334 334 334 333 332 332 332 332 332 331 329 328 327 327 327 326 325 325 325 324 324 324 323 323 323 323 322 321 321 322 322 322 321 320 320 319 318 318 317 316 316 315 315 314 313 311 311 310 310 310 309 307 305 303 303 303 303 303 302 301 298 296 296 298 301 303 303 303 304 306 305 304
331 330 332 333 333 333 334 334 334 333 333 333 333 333 333 332 332 332 332 331 331 330 329 329 329 328 328 328 327 326 325 324 323 323 323 324 324 324 323 323 322 321 321 321 321 321 320 320 319 318 317 316 315 315 314 313 313 312 311 311 310 310 309 308 306 303 302 303 303 303 302 300 297 296 296 296 298 301 303 302 303 305 305 304 303
332 332 333 333 333 334 334 333 333 333 333 332 332 332 332 331 331 330 330 330 329 328 328 328 328 327 327 327 327 327 326 325 324 324 324 324 324 324 323 323 322 322 321 321 321 320 320 319 318 318 317 316 315 314 313 312 312 311 310 310 309 309 309 308 305 302 302 303 302 301 299 297 296 296 296 295 297 300 301 302 304 305 303 302 303
332 332 332 332 332 333 333 332 332 332 331 331 331 331 331 330 329 328 328 328 328 328 327 327 326 326 324 323 322 322 321 321 322 322 323 323 324 324 323 323 322 322 322 321 321 320 320 319 318 317 317 316 315 314 312 312 311 310 309 309 309 308 308 308 306 302 299 299 299 297 296 296 296 296 296 295 296 299 301 304 305 303 301 302 304
330 331 331 332 332 332 331 331 330 329 329 329 329 328 328 328 327 327 326 327 327 327 326 325 325 324 321 319 318 318 317 317 318 318 319 321 323 323 322 322 322 322 321 321 321 320 320 319 318 317 316 316 315 314 312 311 311 310 309 309 309 308 308 308 305 301 298 297 296 295 296 296 296 296 296 296 296 299 303 305 304 301 300 302 304
329 330 331 331 331 331 330 329 328 328 328 328 327 326 327 326 325 325 324 324 324 323 323 322 323 323 321 319 319 319 319 318 318 318 318 319 321 322 322 322 322 322 321 321 320 320 320 319 317 316 315 315 314 313 312 311 310 310 309 309 308 308 306 305 302 299 297 296 296 296 296 296 296 296 296 296 297 300 304 305 302 300 301 304 304
328 329 329 329 329 328 327 327 327 327 326 326 325 326 326 325 323 323 322 320 320 320 319 319 320 321 321 320 320 320 320 319 319 319 319 319 319 320 321 321 321 321 321 321 321 320 319 318 316 315 315 314 314 312 311 311 311 310 309 308 307 305 303 300 299 297 296 296 295 296 296 296 296 296 296 296 298 301 303 302 300 300 303 305 304
327 327 327 327 327 326 326 326 325 325 325 324 324 324 323 322 321 321 321 320 319 319 318 317 317 317 317 317 318 319 320 321 321 320 320 319 319 319 320 320 320 320 320 320 320 320 318 317 316 315 314 314 313 312 311 311 310 309 307 306 306 305 303 301 299 297 296 296 296 296 296 296 296 296 296 296 298 300 301 300 300 301 304 305 304
Wind_Speed
46 46 46 45 45 45 43 42 40 39 38 38 38 38 37 36 34 33 32 31 30 29 28 28 28 27 26 25 25 22 18 17 18 18 19 20 21 21 22 23 23 22 20 20 20 21 22 23 23 23 22 20 19 18 18 18 17 15 12 9 8 7 8 10 11 10 7 6 6 6 6 7 8 10 11 12 13 13 14 15 17 19 18 17 16
47 46 46 46 46 46 45 43 42 40 39 39 39 38 38 37 36 35 35 33 31 31 30 29 29 28 27 26 26 24 21 20 20 20 21 21 21 21 22 23 24 23 22 21 20 20 21 22 23 23 23 23 22 20 20 20 17 14 11 10 10 11 11 12 12 12 10 8 7 7 8 9 12 13 13 14 15 15 15 15 16 18 18 18 17
47 46 46 47 47 46 45 44 43 42 41 40 40 39 39 39 38 38 37 35 33 32 32 31 30 30 29 28 27 26 25 23 23 23 23 22 22 22 22 23 23 23 23 22 20 21 22 21 20 21 22 22 22 20 19 17 15 13 12 11 12 12 12 14 14 14 12 10 9 9 11 13 15 16 15 16 17 17 17 18 18 17 18 18 18
47 47 47 47 47 47 46 46 45 44 43 42 41 40 40 40 40 40 39 37 36 34 33 33 32 32 32 31 30 29 29 27 25 25 24 24 24 23 22 23 23 23 23 22 21 22 22 21 20 20 21 21 21 20 18 16 14 15 15 14 15 15 15 16 14 12 12 12 13 13 15 17 18 19 18 18 18 19 20 21 20 19 18 18 19
47 47 48 47 47 48 48 47 46 45 44 43 42 42 41 41 41 41 40 39 38 37 36 35 35 35 34 34 33 32 31 30 28 27 26 26 25 24 24 24 23 23 23 23 22 22 22 22 22 22 23 23 22 20 18 16 15 15 15 17 18 17 16 14 12 12 13 15 16 17 19 20 22 22 21 21 20 21 22 23 22 21 20 19 20
47 47 48 49 49 49 49 48 48 47 45 44 43 43 42 42 42 42 42 41 40 38 38 37 37 37 36 36 35 34 34 33 31 29 28 27 27 26 26 26 25 24 25 24 23 23 23 22 22 23 25 24 22 20 18 17 17 16 15 15 15 14 13 12 13 14 15 16 18 19 20 22 24 24 22 21 21 22 23 24 23 22 21 20 22
47 47 48 49 50 51 51 50 49 48 47 45 44 44 43 43 43 43 42 42 41 41 40 39 39 39 38 37 36 36 36 35 34 32 30 29 29 29 28 27 27 27 27 26 25 24 24 23 23 24 25 25 23 21 20 20 20 19 16 15 14 13 13 13 14 15 16 18 19 20 21 23 25 25 22 21 21 22 23 24 24 23 23 23 24
46 47 48 50 51 52 52 51 50 49 47 46 45 44 44 44 44 43 43 43 42 42 41 41 40 40 39 38 38 37 38 38 37 35 33 31 30 31 30 29 29 29 29 29 27 26 25 24 24 24 25 25 24 22 22 22 21 20 17 16 15 15 15 15 15 16 18 19 19 20 22 24 25 24 23 22 22 22 22 23 24 24 24 24 24
45 46 48 50 52 53 52 51 51 49 48 47 46 45 44 44 44 44 43 43 42 41 41 41 41 41 41 40 39 39 40 40 39 37 35 33 32 32 31 30 30 30 31 30 29 28 26 25 24 24 24 25 25 24 24 23 21 20 19 18 17 16 16 16 16 18 19 20 21 21 23 24 24 23 22 21 21 22 22 23 24 25 24 25 25
45 47 49 50 51 52 52 52 51 50 49 48 46 45 44 44 44 44 44 42 41 40 40 41 41 41 41 41 40 41 41 41 40 39 36 34 33 33 33 32 31 31 31 31 30 28 27 25 25 25 25 26 27 26 24 22 20 20 20 19 18 16 16 17 18 19 20 21 22 22 24 24 22 20 20 20 21 22 22 23 25 25 25 26 27
46 48 50 51 51 51 52 52 52 50 50 48 47 46 44 43 43 44 43 42 40 38 39 40 41 41 41 41 40 41 41 41 41 40 38 35 33 34 34 32 31 32 32 32 30 29 27 26 26 26 27 26 25 22 21 21 20 20 20 19 17 16 17 18 19 20 20 21 22 23 24 24 21 18 20 21 21 22 23 23 24 25 25 26 28
48 49 51 51 50 50 51 51 51 51 50 49 48 46 44 43 43 43 43 41 39 38 38 39 39 40 40 40 39 39 39 39 40 40 38 35 33 35 36 33 31 33 34 32 31 30 28 26 26 27 26 24 22 21 21 22 22 22 21 18 17 18 19 20 21 21 21 22 23 23 23 21 19 19 20 21 21 22 23 24 24 24 25 27 29
49 50 51 52 51 50 49 49 50 50 50 49 48 47 45 44 44 43 42 41 39 38 38 38 38 38 38 38 38 37 37 37 39 39 37 34 32 35 39 36 32 33 34 33 31 30 28 26 26 26 26 26 25 25 25 24 24 23 21 20 19 20 21 21 21 22 22 23 23 22 20 18 19 19 19 20 21 22 23 24 23 25 27 29 30
50 51 52 53 52 51 49 49 48 48 48 48 48 47 46 45 44 43 42 40 39 39 38 38 38 38 37 37 37 37 37 36 37 37 36 32 30 34 38 37 34 33 33 32 31 30 28 26 25 26 27 28 29 30 27 25 26 24 21 20 21 22 23 22 23 23 23 23 23 20 17 17 19 19 19 19 21 22 23 23 24 27 29 28 26
50 51 53 54 53 52 51 50 48 47 46 46 46 47 46 45 44 43 41 40 40 39 39 38 38 38 37 37 37 38 38 36 36 35 33 30 28 32 37 37 34 34 33 31 30 29 27 26 26 28 29 29 30 31 28 26 26 24 20 20 22 24 25 24 24 24 24 23 22 19 17 17 18 19 19 20 21 22 22 24 26 27 26 23 21
51 51 53 55 54 53 53 52 50 48 46 45 45 45 45 45 44 43 42 41 40 39 38 38 38 37 37 37 38 38 37 36 35 33 30 26 26 30 36 36 34 34 33 31 30 28 25 25 27 30 32 32 32 32 29 26 23 20 18 20 23 25 26 25 25 24 24 23 21 19 18 18 18 20 21 21 22 22 23 25 24 21 21 22 24
53 52 52 54 56 55 54 53 51 48 46 45 44 44 44 44 43 42 42 41 41 40 39 38 37 36 35 37 38 38 37 35 33 31 27 25 24 28 33 35 34 34 34 33 30 27 25 26 29 32 35 34 33 31 25 19 17 18 20 21 23 26 27 26 25 24 22 21 19 18 18 18 20 21 21 22 23 21 20 20 18 17 21 25 27
53 53 52 53 55 55 54 53 52 50 48 46 44 44 43 42 41 40 40 41 41 41 40 38 37 37 37 37 37 37 35 33 31 29 26 24 25 26 30 32 33 33 34 32 29 26 26 27 28 32 35 33 28 24 19 14 18 23 24 24 25 27 29 28 25 23 21 19 18 18 19 20 22 22 22 23 20 15 15 17 17 18 21 22 22
53 54 53 52 53 55 54 53 52 51 49 47 45 44 43 40 38 38 38 39 39 39 38 38 38 37 37 36 35 33 31 29 28 27 24 24 25 26 27 29 31 32 34 32 28 27 29 29 28 30 32 29 23 18 15 16 22 25 25 26 28 29 29 27 24 21 19 18 19 19 20 21 22 22 21 18 13 9 12 15 15 15 16 16 16
53 54 53 51 53 54 54 53 52 51 49 48 46 44 40 37 36 36 36 36 36 35 35 35 35 34 33 32 30 29 27 26 24 23 23 23 23 25 26 26 27 30 32 30 26 27 30 32 33 32 29 24 21 19 18 20 22 23 24 26 29 29 27 24 21 19 19 19 20 20 21 21 20 18 15 10 8 9 12 13 13 14 15 16 17
51 52 51 51 53 54 53 53 52 51 50 48 45 40 37 34 34 34 35 35 33 32 32 31 28 27 26 25 24 23 22 20 17 17 18 19 20 22 23 23 23 25 26 26 26 28 30 33 35 35 30 24 21 20 20 20 21 22 23 26 28 27 23 20 19 19 20 21 21 21 20 19 16 12 8 6 8 12 14 15 16 17 18 19 22
50 49 50 51 52 53 52 52 51 50 48 45 40 37 34 32 32 33 33 33 32 31 29 26 23 22 21 20 19 18 17 14 12 11 13 15 16 18 20 20 20 21 23 25 27 26 27 30 33 32 27 22 18 17 18 19 19 20 22 24 24 21 19 18 19 21 21 21 21 20 17 13 10 8 7 8 11 16 18 19 21 23 25 26 27
49 48 49 50 51 51 50 50 49 47 44 40 36 35 33 32 32 33 33 32 31 30 29 27 25 24 23 20 19 17 16 15 13 12 12 13 15 17 19 19 20 21 22 23 22 22 24 27 28 25 20 16 15 15 16 17 18 20 21 20 19 17 18 19 20 20 20 20 18 15 12 9 7 8 10 13 16 19 20 22 24 26 26 24 22
48 48 48 48 49 48 47 46 44 41 38 37 35 34 33 32 31 32 32 32 31 31 29 27 26 25 22 20 19 19 18 17 15 14 13 13 16 19 20 20 20 20 20 20 20 22 22 19 17 16 14 13 12 13 15 16 17 18 17 16 16 16 17 16 15 14 14 14 12 10 7 6 8 11 13 16 18 19 19 23 23 20 17 16 16
48 47 47 47 46 45 42 39 37 36 35 36 34 33 33 31 30 31 33 33 32 32 30 27 24 21 19 19 20 21 21 19 18 17 16 16 17 19 20 20 20 20 20 21 20 19 17 14 13 12 11 11 11 13 15 15 14 13 13 13 12 12 11 9 7 7 7 7 6 6 6 8 10 12 14 15 15 16 20 26 23 15 14 17 17
49 46 46 45 43 41 39 37 35 35 34 34 33 33 32 30 29 29 30 29 29 29 27 25 20 17 17 18 20 19 17 16 15 16 17 18 19 20 20 21 22 22 21 21 19 17 16 15 13 11 10 10 11 12 13 12 12 11 10 8 7 8 7 6 6 7 6 6 7 8 10 10 11 13 15 16 16 18 23 28 23 16 16 19 18
48 46 44 42 40 39 38 37 36 34 33 33 32 31 29 27 26 26 26 26 25 23 21 19 15 13 15 17 16 14 11 10 11 12 14 16 18 20 22 22 22 22 21 19 19 18 17 14 12 11 11 11 11 10 10 10 10 9 7 6 7 7 7 7 8 8 8 8 9 10 11 11 13 15 16 18 20 22 24 23 19 17 17 19 20
47 44 42 40 39 37 37 37 37 36 35 33 31 29 26 24 23 23 23 22 20 17 15 13 12 13 16 16 13 11 10 9 9 10 12 14 16 18 20 20 20 20 18 17 17 16 15 14 13 13 13 11 10 9 9 8 7 7 7 7 7 8 8 8 9 9 9 9 10 10 11 12 14 15 17 19 22 22 20 16 16 17 18 19 20
46 43 41 39 38 38 38 38 38 38 37 34 32 29 26 24 23 21 19 18 15 12 11 11 11 13 15 14 11 10 8 7 7 9 11 13 14 15 15 16 17 16 15 14 14 14 13 13 13 12 11 9 8 8 7 7 7 8 7 7 7 8 8 8 9 9 9 10 10 10 11 12 14 16 18 20 19 17 14 14 16 18 18 19 20
40 40 40 39 39 38 39 38 38 38 37 35 33 31 28 24 20 17 16 15 13 11 11 12 13 14 15 13 10 8 6 5 7 9 11 12 13 14 13 13 12 11 10 11 12 12 12 11 10 9 8 7 7 7 7 9 10 9 8 8 8 7 7 8 9 9 10 11 11 12 13 14 16 18 19 17 14 13 14 15 16 16 18 19 21
32 34 36 37 37 38 38 38 38 37 35 33 32 31 28 25 20 15 13 12 11 12 13 14 13 13 14 11 8 8 8 8 9 9 11 13 14 13 13 12 11 9 10 11 12 12 11 9 8 6 5 5 6 7 9 11 10 10 10 9 6 4 5 7 8 9 11 12 13 13 15 17 18 18 15 12 12 13 15 15 15 16 18 19 20
32 34 34 36 38 39 38 37 35 34 31 29 27 26 24 22 19 16 14 12 12 14 15 13 11 11 11 9 8 8 9 9 9 9 10 12 13 12 12 11 11 11 12 13 13 12 12 10 8 3 4 6 7 9 11 12 10 9 8 7 5 4 5 6 8 10 12 13 14 15 17 18 18 17 14 12 13 14 14 15 16 18 18 19 20
37 38 37 36 36 35 33 31 30 28 26 24 22 20 18 16 16 16 16 15 15 15 14 13 11 11 10 9 9 8 7 7 8 9 9 11 12 12 12 12 12 13 14 14 14 13 13 11 7 5 7 8 10 11 13 13 12 10 9 9 8 8 8 9 11 13 13 14 15 17 18 19 19 18 14 11 11 13 14 16 17 17 18 20 21
37 37 34 31 30 29 27 26 24 23 21 20 19 17 16 14 13 14 16 17 17 16 15 14 12 11 11 11 9 9 9 8 8 9 11 12 13 13 13 14 14 14 14 13 13 13 13 11 10 11 12 11 11 12 12 12 12 12 10 10 10 11 12 12 12 13 13 14 16 18 20 21 19 16 12 9 11 13 15 17 17 18 19 20 20
30 28 25 22 21 22 20 19 18 17 17 18 18 17 17 15 13 12 13 15 16 16 15 13 12 12 12 11 9 10 11 10 10 11 13 13 13 13 13 14 14 14 14 14 14 13 13 13 13 13 13 12 12 13 13 12 11 10 10 10 10 11 13 13 13 14 15 17 19 21 22 20 14 9 7 9 12 14 16 16 17 18 18 19 20
21 20 18 16 15 15 14 14 13 13 15 17 19 18 17 16 15 14 13 14 15 14 12 11 12 13 13 12 10 10 11 12 12 13 13 12 11 12 13 14 14 14 14 13 13 13 13 13 13 13 14 13 13 13 13 12 11 9 9 9 9 11 12 13 14 16 17 19 20 19 17 13 7 4 7 10 12 15 17 17 17 17 17 18 20
17 17 16 15 15 15 15 15 13 13 15 18 20 19 18 16 15 15 15 15 14 13 12 12 13 13 14 13 12 11 12 12 13 12 12 12 12 12 13 14 13 13 12 12 12 12 13 13 13 14 14 14 13 13 13 13 13 11 10 10 10 12 13 15 15 16 17 18 16 13 10 7 5 6 10 12 14 17 17 16 15 15 17 18 20
16 16 15 16 18 18 18 18 18 17 18 19 18 16 14 13 13 15 16 15 13 12 12 13 13 13 13 14 13 13 13 13 12 12 12 13 13 14 15 14 13 12 11 10 10 11 11 12 13 13 13 13 14 14 13 13 12 11 11 11 12 14 15 15 15 16 16 13 9 7 7 6 7 10 12 14 16 17 15 13 14 16 18 19 19
18 17 16 16 17 18 17 18 19 19 19 18 17 15 13 13 14 15 15 13 11 10 10 12 13 13 13 13 14 14 14 13 12 12 12 13 14 15 15 15 14 14 12 11 10 10 10 12 13 13 13 13 13 12 10 9 9 10 11 12 13 15 15 15 16 17 14 8 6 7 9 9 11 12 13 14 15 14 12 13 16 17 17 18 19
19 18 17 15 14 15 14 14 15 16 15 15 15 14 14 15 16 16 15 13 12 11 10 11 11 11 11 12 13 14 14 13 12 12 13 14 14 14 14 15 15 14 13 11 10 10 11 13 14 13 12 12 10 8 7 7 8 10 11 12 12 13 13 14 16 16 11 6 5 8 9 11 12 12 13 14 13 10 11 14 16 15 15 17 19
20 19 17 15 14 14 13 12 12 12 12 12 13 14 14 15 16 16 14 13 13 12 11 10 8 8 9 10 11 11 11 11 11 12 13 12 12 12 13 14 14 13 13 12 11 10 11 13 14 12 11 10 8 7 8 9 10 11 12 12 11 11 13 14 15 12 7 4 6 8 10 12 13 13 14 14 11 9 12 14 14 13 15 17 19
18 18 16 14 13 13 12 11 11 11 11 13 15 16 16 16 16 16 15 15 14 14 13 11 9 8 9 10 10 10 10 10 10 11 11 10 11 12 12 13 13 14 14 12 11 11 12 13 12 11 11 11 9 9 10 10 10 12 13 12 12 13 14 15 16 13 9 8 9 10 12 13 14 14 15 14 11 11 13 13 12 13 15 17 19
14 14 12 11 10 11 12 12 12 13 14 15 17 17 16 15 14 13 13 13 13 12 12 11 11 11 12 12 12 12 11 10 10 10 10 10 10 10 11 11 12 13 13 12 11 12 13 12 12 12 12 11 10 10 11 12 13 15 14 13 13 15 17 17 17 14 12 12 12 13 13 14 14 15 15 14 12 11 12 12 12 13 14 17 18
10 10 9 9 9 11 14 16 15 16 17 17 17 16 15 14 13 12 11 11 11 11 11 10 11 12 12 13 12 12 10 10 11 11 11 10 8 8 8 8 8 10 13 13 14 15 15 14 13 12 12 11 11 12 13 14 14 14 12 12 14 16 17 18 17 15 14 14 15 15 14 14 14 14 14 13 11 10 11 13 12 12 14 16 16
9 10 12 13 14 16 18 18 17 17 17 15 15 15 14 13 12 10 10 11 12 11 10 10 9 9 10 10 10 10 9 9 10 11 11 10 8 8 9 9 9 11 13 14 15 16 16 15 14 13 12 11 11 10 11 12 13 13 13 13 14 16 17 18 17 15 14 13 14 14 14 14 14 13 13 12 11 11 12 12 10 11 15 15 13
14 14 13 14 15 16 16 15 15 15 14 14 15 15 14 12 12 11 10 11 12 12 11 10 9 8 8 7 8 8 8 9 11 13 14 13 10 9 11 12 13 15 16 17 17 16 15 15 15 14 12 11 10 10 10 11 11 12 12 13 14 16 18 19 17 15 16 15 15 15 15 14 12 12 12 12 12 11 10 9 9 13 15 12 10
15 13 12 13 14 14 14 13 13 12 11 12 15 16 14 13 14 13 11 10 10 10 10 9 8 7 6 5 5 5 5 6 8 10 13 14 12 10 11 14 15 16 17 17 17 16 14 14 15 15 13 12 12 12 11 11 11 12 13 14 15 17 18 19 17 13 14 15 15 14 13 12 11 11 12 13 12 10 8 8 11 14 12 9 8
13 14 14 14 13 13 12 12 12 11 11 12 14 14 13 13 14 13 12 10 9 8 7 6 6 7 5 2 2 3 2 3 4 3 5 9 12 12 12 13 14 14 14 15 16 17 16 16 16 14 13 13 13 13 13 14 15 16 16 16 18 18 19 19 16 12 10 11 11 11 11 10 11 11 12 12 11 8 7 9 12 12 9 6 8
10 10 11 11 10 11 11 12 12 12 12 12 13 12 12 12 11 10 11 10 9 9 8 6 6 6 5 3 3 3 3 4 5 5 5 7 11 14 16 15 14 14 14 14 15 17 17 16 15 13 13 14 14 14 14 15 16 17 18 18 18 18 16 14 12 10 10 10 10 10 10 9 10 11 11 11 9 7 7 10 12 9 5 5 9
6 7 9 10 9 9 10 10 11 11 12 11 11 11 12 11 9 9 10 9 8 9 9 7 5 5 5 5 6 7 7 7 6 6 6 7 9 12 15 15 14 15 16 16 16 15 15 15 15 15 14 14 14 13 13 14 15 16 16 15 13 12 11 9 9 9 10 10 10 9 9 9 10 11 10 9 9 8 8 8 8 5 4 6 10
5 8 10 9 8 9 10 9 9 10 12 12 11 11 12 10 8 9 12 11 9 8 10 9 8 8 9 7 6 7 9 11 10 7 6 8 10 12 13 12 12 13 13 14 15 15 15 15 16 16 16 15 14 13 12 13 13 12 10 9 9 10 11 12 12 11 10 10 10 9 9 9 11 10 9 9 10 8 6 5 4 3 4 7 10
Wind_Direction
216 216 215 214 215 215 216 215 215 217 219 220 219 220 221 223 222 222 223 224 223 222 223 224 224 223 226 229 228 227 226 222 219 219 217 213 214 216 213 214 218 221 220 217 215 217 217 216 219 222 223 223 224 225 224 225 234 239 236 229 232 247 261 266 267 268 269 271 275 284 293 299 309 317 320 319 316 308 300 298 297 298 299 301 299
215 216 215 214 215 216 216 215 216 218 220 220 219 220 222 223 223 223 224 225 225 225 225 225 226 227 230 233 235 237 236 232 226 222 220 216 215 216 214 214 216 218 219 220 217 217 218 217 218 222 225 227 225 222 220 223 229 225 212 219 233 239 251 263 268 273 276 279 285 295 302 303 308 315 316 315 317 316 310 307 304 300 297 296 298
215 216 216 215 215 216 216 215 216 219 220 220 220 220 221 222 223 225 225 226 227 228 228 229 230 231 234 236 239 242 240 236 231 227 223 219 216 217 215 214 217 216 217 219 216 217 218 217 217 219 222 223 219 216 219 224 224 210 205 221 226 222 236 254 262 267 276 286 292 295 302 305 307 311 313 313 317 318 316 315 313 309 303 298 296
215 216 216 216 216 215 216 216 216 219 221 221 221 221 221 221 223 225 226 227 228 229 230 231 232 233 235 237 239 242 242 239 235 231 227 223 219 219 216 215 217 217 218 219 217 219 221 221 221 223 224 222 218 217 220 225 221 209 209 218 219 220 236 249 254 260 273 289 298 302 306 308 310 312 312 313 317 318 317 317 317 316 312 305 299
214 216 216 216 215 215 216 216 216 219 221 221 221 221 221 220 222 224 226 227 228 229 230 231 233 234 236 238 240 242 243 242 239 235 232 228 224 221 219 218 218 219 220 221 220 221 224 223 223 225 227 225 220 217 218 222 223 219 219 220 221 229 239 245 252 261 273 286 299 309 312 310 310 312 312 312 314 314 314 316 315 314 313 308 304
213 215 216 216 215 216 216 216 217 219 221 222 221 221 221 221 222 224 226 227 228 229 231 233 235 236 238 240 242 244 245 244 242 240 237 232 229 225 222 221 221 222 222 222 223 224 226 225 223 224 225 223 218 217 218 221 227 231 229 224 224 232 239 245 254 261 270 281 294 305 312 311 307 305 307 308 306 308 312 312 311 310 307 303 301
213 214 216 216 216 216 216 217 218 219 221 223 222 221 221 222 222 224 226 227 228 230 232 234 237 239 240 242 245 246 246 245 244 242 239 236 233 230 226 224 224 224 225 224 224 226 228 227 224 222 223 222 218 217 219 223 228 231 231 226 226 232 238 246 254 259 269 280 290 300 307 307 302 298 301 302 300 304 309 308 307 305 302 298 297
212 213 216 216 216 217 218 218 219 220 221 223 222 221 222 222 223 225 225 226 228 231 233 235 237 239 242 244 246 246 246 245 243 240 239 238 237 234 231 228 226 226 226 226 226 228 228 227 224 222 223 224 222 220 221 224 227 229 229 227 228 232 237 244 253 263 272 279 287 296 300 300 296 293 294 295 295 301 305 303 301 301 300 298 296
211 212 215 217 217 217 219 219 218 219 221 222 222 222 222 223 222 224 226 227 229 231 234 236 237 239 241 243 244 244 244 243 242 241 240 239 239 238 235 233 230 227 227 227 228 230 230 228 226 224 224 226 226 226 226 227 229 232 231 227 227 230 237 247 258 268 276 281 287 293 296 295 292 289 289 291 295 300 301 299 297 298 298 296 295
210 211 214 217 217 217 218 218 217 218 219 221 222 222 223 223 222 223 226 228 229 231 233 236 238 240 242 242 243 243 243 244 244 244 242 241 242 242 238 236 234 231 230 230 230 232 234 232 229 228 228 229 230 230 231 230 232 234 230 228 230 235 244 254 263 272 279 283 288 292 293 291 288 286 289 293 296 297 297 297 296 296 297 296 297
210 211 214 217 217 217 218 217 217 217 219 221 222 222 223 223 222 223 225 227 229 230 233 237 240 242 244 244 245 245 245 246 246 245 244 242 244 243 241 240 240 237 233 232 234 236 237 235 233 231 230 230 230 232 233 232 233 235 233 232 237 244 250 257 265 274 280 284 287 290 289 288 287 287 291 294 295 295 296 295 294 295 299 301 302
211 212 213 215 217 218 218 217 217 218 219 220 221 222 222 222 222 222 224 226 228 229 232 237 241 243 245 245 246 246 248 250 248 246 244 243 244 244 242 243 243 240 237 234 235 237 238 238 235 231 230 230 232 235 235 233 235 240 241 240 244 249 252 258 267 275 281 285 286 285 284 284 285 288 291 293 293 293 292 291 292 297 302 304 303
211 212 213 214 216 219 219 218 217 218 219 220 221 221 220 220 221 222 223 226 228 230 233 236 240 242 244 245 247 248 251 252 250 247 245 244 244 245 245 245 243 241 239 237 237 238 239 239 236 232 229 228 230 234 234 234 236 239 241 244 249 251 254 263 272 278 285 288 285 280 278 279 283 288 293 293 290 289 287 289 295 301 303 304 303
212 212 213 213 215 218 220 220 219 219 219 219 219 220 219 219 220 221 222 224 227 230 232 235 238 241 243 246 249 251 253 253 251 248 245 244 246 247 248 247 244 241 241 240 240 240 240 240 237 233 229 226 227 229 231 236 240 239 237 244 251 254 260 270 276 279 286 289 282 277 277 278 283 289 291 288 285 286 287 293 300 302 301 301 300
212 213 213 213 214 216 219 220 220 219 219 219 219 220 220 219 218 219 221 224 226 229 232 235 238 240 243 247 250 251 252 253 252 249 245 246 248 249 249 247 244 242 242 242 242 241 241 242 240 236 233 232 232 231 229 232 237 235 233 242 253 260 268 276 279 281 285 284 279 278 281 283 287 290 289 286 285 288 293 297 298 298 298 299 302
212 214 213 213 213 215 217 218 218 218 218 218 218 219 219 219 218 219 220 223 226 229 231 234 236 239 243 248 249 249 249 251 251 249 247 249 250 249 249 247 244 243 242 241 242 241 241 243 242 240 237 234 235 235 229 227 233 237 239 249 260 268 273 276 279 283 283 278 276 280 284 287 290 292 292 290 289 292 294 292 292 296 301 304 306
212 215 215 213 213 213 214 215 215 216 216 216 217 218 219 219 218 219 220 222 225 228 229 232 236 239 243 246 246 246 247 249 251 250 250 253 251 250 252 250 245 242 240 240 240 239 239 241 241 244 244 238 236 235 225 221 239 248 250 259 268 272 273 275 279 280 276 273 275 280 282 285 289 290 290 289 290 292 289 285 291 304 306 304 306
211 214 216 215 213 212 212 212 213 214 215 216 217 217 216 217 218 219 221 223 225 228 229 232 236 239 241 243 243 244 245 248 250 250 251 254 255 255 255 253 247 241 238 238 239 237 239 239 239 247 249 240 230 222 211 224 256 256 254 265 271 269 271 277 279 276 272 273 277 280 281 284 286 287 287 288 291 293 287 288 299 306 302 302 306
211 214 216 215 213 211 210 209 211 213 215 216 216 216 214 215 217 219 221 223 225 228 230 233 235 236 237 239 240 241 243 246 248 249 251 255 257 256 255 252 249 243 239 239 239 236 238 239 241 252 254 241 227 222 222 243 260 258 257 264 267 267 272 277 276 272 271 274 278 280 282 284 286 286 287 287 287 288 291 295 298 297 296 300 304
212 213 214 213 211 209 208 208 210 212 215 215 214 214 215 216 217 218 219 221 223 226 229 231 232 232 233 234 236 239 243 244 244 246 248 251 253 254 252 250 250 245 240 240 241 239 241 243 246 255 258 250 243 246 251 257 261 258 256 259 262 267 273 273 271 271 274 278 281 282 283 285 286 285 285 289 291 290 290 291 292 295 298 299 298
211 211 210 209 207 206 206 208 209 211 213 212 210 211 214 216 216 216 216 217 219 223 225 226 227 228 231 233 234 236 239 239 237 236 237 238 242 248 249 250 249 244 238 241 246 246 246 247 248 253 257 253 248 251 257 261 257 251 252 257 262 267 270 268 270 276 280 283 284 284 285 286 284 280 281 291 290 284 282 284 290 297 298 297 296
209 208 207 205 204 203 204 205 207 207 207 207 208 209 211 214 215 215 214 214 215 217 218 217 218 219 222 226 229 232 237 240 239 233 228 227 232 238 241 242 241 239 239 244 249 250 251 253 254 254 253 249 249 252 254 251 245 246 253 258 261 264 267 271 278 282 283 285 285 285 287 284 275 270 272 273 273 273 275 279 284 288 290 291 294
206 205 203 199 198 198 199 201 201 202 202 204 207 208 208 209 212 213 212 209 206 206 207 208 208 209 210 213 220 230 241 244 243 241 234 227 225 227 230 232 233 236 242 248 254 259 264 263 259 255 250 249 252 251 248 247 249 253 255 256 260 267 274 280 284 283 283 283 281 281 279 269 270 284 282 277 276 278 282 287 287 285 287 288 290
201 199 196 192 191 192 194 195 196 198 200 203 205 206 206 205 203 203 201 198 195 197 201 203 203 203 205 210 219 232 242 241 238 239 235 224 221 224 228 230 232 238 246 254 261 267 269 264 254 247 249 255 258 254 253 255 255 254 255 261 271 280 284 287 289 289 289 288 281 277 277 285 304 307 295 288 285 284 296 308 303 294 297 304 306
194 192 188 186 186 186 186 189 192 196 199 201 203 203 202 198 192 190 192 192 192 196 200 202 204 207 213 220 226 234 239 235 232 234 230 219 217 223 228 230 234 242 250 255 259 259 256 251 250 254 260 266 265 259 256 255 255 259 268 277 286 291 292 300 311 314 315 313 307 310 321 323 317 306 300 301 295 291 309 322 319 312 321 325 321
185 183 181 181 180 180 181 184 189 193 195 196 198 198 196 192 187 187 189 190 193 197 200 204 209 215 221 222 223 226 228 224 222 223 221 217 218 224 228 231 235 241 246 248 247 243 242 246 255 266 273 271 262 255 251 254 261 268 274 286 303 307 307 317 328 328 330 333 333 336 337 328 309 299 301 305 301 302 317 324 321 320 331 332 326
175 174 173 173 174 177 180 182 184 185 186 187 189 190 190 189 187 186 187 189 191 195 200 207 216 221 214 208 207 208 207 206 206 208 212 214 216 219 222 226 230 234 237 240 239 239 243 249 253 262 265 260 252 248 250 256 262 265 273 297 318 320 322 327 323 318 323 327 328 331 330 316 300 296 297 299 302 311 320 322 320 326 335 334 331
166 165 166 168 170 174 176 176 176 177 178 180 181 183 186 189 188 188 189 191 194 199 208 221 231 223 207 198 196 196 199 205 208 211 218 219 215 213 214 217 222 227 232 235 235 237 243 245 247 254 257 251 244 242 243 248 255 263 276 295 311 316 318 319 316 315 319 319 314 312 308 300 294 292 294 299 307 315 320 323 327 332 335 334 333
158 160 162 164 166 168 170 171 173 174 175 177 179 180 184 188 190 190 191 193 201 214 228 233 227 213 202 200 202 204 207 212 213 215 220 220 218 217 215 215 219 224 229 231 233 237 241 240 243 249 247 238 235 235 240 257 271 272 276 286 299 306 310 315 315 311 306 301 295 290 290 293 295 297 301 307 315 322 326 329 331 332 333 333 333
145 151 155 159 163 167 168 169 172 175 176 178 178 178 179 183 187 191 193 197 208 220 218 209 203 203 206 210 215 216 211 201 202 209 212 212 215 220 220 218 221 227 232 235 235 236 236 234 235 234 224 223 234 247 268 280 278 276 280 283 284 288 295 300 299 291 285 283 281 282 290 300 307 309 312 319 326 330 329 329 332 335 335 333 332
145 147 151 158 165 169 167 167 171 174 176 178 179 178 176 174 175 183 192 198 204 203 191 183 189 204 214 220 224 220 208 194 194 205 210 208 210 214 217 221 227 236 243 244 238 232 227 218 206 205 223 248 263 275 286 287 283 285 289 285 271 258 259 265 271 276 281 284 287 293 303 311 315 315 317 322 326 325 325 331 337 336 333 332 331
155 151 154 161 165 166 164 164 168 171 173 177 180 181 179 175 173 177 183 188 192 190 185 183 188 197 206 218 226 220 208 197 191 195 204 208 209 212 216 223 230 235 236 233 227 224 219 206 193 206 279 282 279 282 283 281 279 278 271 251 220 205 227 254 271 280 285 290 298 307 313 315 316 314 311 312 316 322 331 337 336 332 331 331 330
151 152 158 162 161 161 161 162 165 169 172 176 179 182 184 183 182 182 180 181 184 187 190 194 194 191 199 213 214 203 197 194 188 187 194 198 199 202 208 213 219 223 225 222 219 218 214 206 208 240 257 259 268 275 273 267 262 254 241 231 233 245 257 270 278 282 288 297 304 311 315 315 316 315 312 312 322 332 335 331 328 328 330 329 327
152 156 161 160 156 156 158 159 161 166 171 177 181 184 184 184 188 188 182 179 182 187 191 195 197 201 209 211 200 185 182 186 185 185 185 183 184 188 195 202 210 217 220 221 220 216 210 209 223 237 240 247 264 273 270 261 252 245 244 248 257 265 270 275 279 284 293 302 306 310 314 315 315 314 315 326 337 334 325 322 324 328 327 326 329
152 154 156 154 152 154 156 159 163 169 175 179 181 180 178 178 183 184 181 181 185 188 190 191 196 202 205 201 192 184 182 182 183 182 180 179 183 191 200 208 215 218 217 217 216 213 211 216 229 239 242 248 258 264 267 264 257 251 254 260 265 269 274 278 283 288 296 303 306 309 312 315 314 316 328 339 335 322 316 318 322 324 326 330 336
141 141 143 145 148 150 151 155 161 164 168 173 176 176 176 179 184 184 185 189 191 189 188 192 198 202 200 193 190 188 186 185 186 185 186 191 202 213 219 222 223 221 218 217 215 214 218 228 239 248 250 252 256 261 265 269 272 270 264 260 261 267 274 281 287 293 300 305 308 310 312 312 316 343 342 329 317 311 312 315 319 324 332 338 340
138 136 136 138 140 138 137 141 148 154 160 166 171 173 175 182 188 188 190 195 196 192 192 198 204 207 202 194 189 189 191 193 194 196 205 216 223 226 226 225 224 221 220 219 219 221 229 238 247 252 250 250 258 267 270 273 275 272 268 268 270 275 282 288 293 299 304 305 306 310 312 310 325 338 324 311 307 309 314 319 326 334 339 340 338
139 136 135 135 133 129 128 133 140 147 152 156 157 158 161 170 179 183 189 196 199 201 204 208 210 211 207 201 197 197 198 202 209 217 225 227 225 223 222 220 217 216 215 216 220 227 233 237 244 249 251 255 264 272 275 276 272 268 270 279 286 290 293 295 299 306 309 308 311 321 323 322 324 317 307 304 309 314 321 332 338 337 337 338 339
140 137 134 132 130 127 125 126 130 133 138 142 144 144 143 147 158 171 181 184 182 184 196 203 204 206 205 204 204 205 207 215 226 231 228 221 217 218 220 217 213 211 211 215 227 238 240 238 240 245 254 266 274 277 274 273 273 273 276 282 290 297 299 298 301 304 306 310 325 326 320 313 308 303 303 309 314 318 329 339 337 333 335 338 338
144 143 138 134 133 132 127 124 127 130 135 142 147 147 145 148 159 170 177 178 171 170 180 191 196 201 206 210 214 217 221 229 233 230 223 218 217 217 218 217 215 213 212 218 232 240 239 236 237 243 256 269 276 272 264 265 271 275 276 280 286 290 290 290 296 301 308 323 319 304 299 299 299 302 310 314 316 326 336 332 328 331 336 337 336
143 146 146 144 142 140 135 133 136 139 143 149 154 156 159 166 173 179 186 193 192 187 188 191 192 198 206 211 214 218 221 225 225 221 218 217 219 220 222 223 222 219 217 223 232 232 226 227 232 243 259 266 260 248 249 256 266 276 280 282 285 284 283 289 297 303 310 314 296 282 283 291 295 301 312 318 322 327 326 322 324 332 336 336 336
145 146 147 145 145 146 145 144 146 151 156 161 164 169 174 181 185 188 192 196 195 195 201 206 204 198 196 195 196 200 203 207 213 215 215 217 221 226 230 234 236 231 226 227 232 226 218 218 228 243 256 260 256 249 245 253 274 288 285 280 282 287 292 297 301 296 282 273 277 279 280 285 290 298 309 318 319 315 315 320 327 332 334 336 338
151 146 141 138 142 152 158 159 161 167 170 169 171 175 179 181 181 182 184 186 189 197 206 206 197 193 192 190 192 196 199 202 208 212 213 215 221 225 227 229 232 228 220 218 224 227 225 229 240 252 257 258 257 255 254 264 282 289 284 276 280 289 297 300 295 282 264 257 263 269 272 277 288 299 310 316 316 315 320 325 327 332 337 338 338
169 160 155 153 153 161 170 175 177 178 175 172 174 178 180 181 182 184 186 188 192 197 197 186 180 184 190 192 195 198 202 206 213 217 215 212 215 222 222 217 212 208 207 213 224 231 236 244 249 250 248 249 252 258 265 275 285 288 286 283 282 288 298 301 291 272 258 256 261 266 274 285 296 307 317 320 317 318 323 323 326 337 340 335 337
157 159 167 169 167 172 180 184 185 185 183 181 178 176 174 176 178 179 178 179 182 187 187 183 184 191 197 200 202 203 204 207 211 215 214 212 218 233 235 224 213 209 213 222 232 235 238 243 244 241 241 245 252 262 273 282 287 286 285 285 285 290 303 310 298 275 260 261 267 273 284 296 304 310 316 316 310 312 317 321 329 337 331 329 342
156 162 172 174 172 176 181 182 182 186 189 183 172 164 161 162 162 161 168 179 185 185 183 183 189 197 205 209 208 209 214 215 214 213 211 206 212 230 230 217 213 217 221 225 229 232 235 238 238 238 241 244 250 261 269 273 277 278 279 284 290 296 306 314 307 282 263 262 271 279 287 295 301 307 311 308 304 308 318 327 331 328 325 331 356
158 166 176 176 175 178 179 177 176 176 173 167 161 156 155 160 163 164 168 175 177 177 180 187 194 197 199 202 207 216 224 220 215 217 215 208 208 222 225 218 220 230 235 233 229 226 226 230 232 235 240 243 249 261 268 268 273 281 286 292 297 299 303 310 310 292 268 266 276 283 288 295 301 306 309 305 301 308 325 330 326 324 328 345 7
162 167 172 174 177 178 173 167 164 160 156 159 160 160 165 174 178 178 178 177 176 180 188 200 206 201 192 183 193 211 216 185 168 173 197 200 204 216 225 226 228 232 236 234 228 223 223 227 231 235 240 242 247 261 273 277 281 288 294 297 300 301 303 307 310 302 284 281 285 286 289 295 301 306 307 304 302 310 324 321 319 323 335 359 9
163 169 172 170 169 167 161 158 163 168 171 173 173 173 177 182 186 187 183 179 178 182 187 194 207 213 225 244 225 210 212 196 179 175 187 201 212 223 230 233 234 233 231 231 230 228 229 230 229 227 231 239 250 266 278 281 282 286 289 292 297 303 304 302 300 299 296 296 295 292 292 296 301 304 305 300 292 293 302 309 315 325 345 8 8
157 167 168 164 163 164 166 170 177 182 183 182 182 182 181 178 180 184 179 170 167 177 184 185 174 170 191 225 231 225 226 222 203 191 199 211 220 227 231 233 236 237 236 236 234 230 227 227 228 230 238 249 260 270 278 282 285 289 293 299 312 327 328 317 306 305 306 305 300 296 298 301 303 304 300 288 278 281 295 309 318 331 2 8 3
163 165 166 170 174 175 176 181 186 187 186 183 182 182 180 178 179 180 175 171 172 183 191 194 177 150 147 162 174 181 202 215 215 210 215 218 218 221 228 234 239 239 237 236 234 229 223 222 230 238 247 257 265 274 285 293 297 303 314 326 338 348 351 344 331 319 313 309 303 300 301 304 304 300 290 279 276 283 301 320 328 338 350 349 346